Overview Statistics Trail Chart Weather Telemetry Raw packets
 

This is the latest recevied weather packets stored in our database for station/object KK7MLS-13. If no packets are shown the sender has not sent any weather packets the latest 10 day(s).

<< 42 43 44 45 46 47 48 >>
Time Temp. Humidity Pressure Rain* Wind** Luminosity Snow
1788392868 15° C 94% 1007.7 hPa 0 mm - 73 W/m² -
1788392567 15° C 95% 1007.6 hPa 0 mm - 56 W/m² -
1788392262 15° C 95% 1007.6 hPa 0 mm - 92 W/m² -
1788391962 15° C 95% 1007.7 hPa 0 mm - 107 W/m² -
1788391661 14.44° C 95% 1007.6 hPa 0 mm - 74 W/m² -
1788391360 14.44° C 94% 1007.5 hPa 1.27 mm - 36 W/m² -
1788391055 14.44° C 94% 1007.6 hPa 0 mm - 42 W/m² -
1788390750 14.44° C 94% 1007.7 hPa 0 mm - 29 W/m² -
1788390445 14.44° C 94% 1007.5 hPa 1.78 mm - 39 W/m² -
1788390144 14.44° C 94% 1007.5 hPa 3.05 mm - 24 W/m² -
1788389838 14.44° C 94% 1007.3 hPa 3.05 mm - 39 W/m² -
1788389539 14.44° C 94% 1007.2 hPa 1.78 mm - 36 W/m² -
1788389237 14.44° C 93% 1007.6 hPa 0 mm - 32 W/m² -
1788388933 15° C 93% 1007 hPa 1.27 mm - 31 W/m² -
1788388629 15° C 92% 1007.2 hPa 1.27 mm - 50 W/m² -
1788388328 15° C 92% 1007.1 hPa 0 mm - 58 W/m² -
1788388027 15° C 91% 1006.9 hPa 0 mm - 71 W/m² -
1788387727 15° C 90% 1006.9 hPa 0 mm - 54 W/m² -
1788387421 15° C 90% 1007 hPa 0 mm - 51 W/m² -
1788387120 15° C 90% 1007.1 hPa 0 mm - 42 W/m² -
1788386817 15° C 90% 1007.2 hPa 0 mm - 57 W/m² -
1788386517 15° C 90% 1006.8 hPa 0 mm - 48 W/m² -
1788386212 15° C 90% 1007 hPa 0 mm - 46 W/m² -
1788385908 15° C 91% 1007 hPa 0 mm - 62 W/m² -
1788385602 14.44° C 90% 1006.9 hPa 0 mm - 73 W/m² -

* Rain latest hour (hover to see other rain measurements)
** Current wind speed in m/s (hover to see current wind gust speed)